STARLETTE 1 07646U 75010A 09183.93367769 -.00000208 00000-0 -50046-4 0 34 2 07646 49.8235 68.7541 0205947 124.8428 237.2032 13.82271229737860 LAGEOS 1 1 08820U 76039A 09183.57972811 .00000015 00000-0 10000-3 0 8027 2 08820 109.8197 217.6807 0044791 188.7500 171.2487 6.38664529518025 EGP 1 16908U 86061A 09183.94485574 -.00000083 00000-0 10000-3 0 9538 2 16908 50.0092 110.5511 0011246 257.1753 102.7825 12.44462582709560 LAGEOS 2 1 22195U 92070B 09184.21630132 -.00000009 00000-0 10000-3 0 127 2 22195 52.6424 220.7451 0137098 359.8712 0.1798 6.47294389394708 STELLA 1 22824U 93061B 09183.80664529 .00000121 00000-0 66995-4 0 3120 2 22824 98.4753 131.6569 0005362 254.8404 105.2175 14.27284759821416 WESTPAC 1 25398U 98043E 09184.01502032 -.00000036 00000-0 18980-5 0 5634 2 25398 98.3274 204.3738 0001806 140.5876 219.5433 14.22675894570260 GRACE 1 1 27391U 02012A 09183.78546342 .00000744 00000-0 21291-4 0 2332 2 27391 89.0163 0.9025 0018888 51.0379 309.2550 15.34224101407700 GRACE 2 1 27392U 02012B 09184.43741460 .00000563 00000-0 15836-4 0 2331 2 27392 89.0139 0.8299 0019747 50.5646 309.7348 15.34222116407807